CAPE
719 1175 1151 1467 1397 1211 1494 1514 1772 1795 1650 1324 1270 1750 1837 1844 1897 1942 2214 2094 2028 1827 1421 1371 1393 1341 1338 1558 1695 1490 1170 1114 1073 1068 1276 1401 1132 1074 1075 1114 796 402 824
879 935 1271 1332 1110 1390 1893 1783 1742 1965 1896 1939 1828 1916 1856 2065 2078 2140 2128 1920 1780 1723 2076 1710 1568 1661 1624 1607 1638 1652 1596 1224 1201 828 939 905 1193 834 910 868 586 763 1146
758 736 1525 1513 1231 1926 1465 1462 1658 1656 2012 1747 1961 2167 1954 1891 1998 1687 1660 1882 1482 2142 1848 1797 1726 1666 1646 1645 1627 1748 1159 910 955 682 614 426 516 936 946 1030 889 763 884
604 759 1244 1473 1347 1506 1760 1835 1730 1738 1778 1682 1474 2158 1914 1943 1678 1514 1405 1221 1770 1784 1641 1605 1549 1446 1223 1063 1065 1127 1164 1245 924 1318 381 9 98 591 1162 1291 1294 765 890
676 856 1259 1515 1442 1875 1557 1669 1649 1779 1810 1674 1007 1833 1736 1601 1459 1399 1405 1525 1587 1613 1593 1297 1125 1007 930 898 930 985 1012 925 1147 1514 798 180 61 134 953 1169 1147 839 921
691 554 1178 1589 1840 1763 1677 1744 1982 1636 1979 1271 1621 1943 2054 1791 1831 1489 1579 1619 1476 1304 1135 1032 1054 1032 943 801 678 593 739 927 1330 1680 1543 311 37 3 688 1332 1141 960 977
844 501 873 1584 1585 1761 1485 1102 1158 1693 1479 1476 1899 1712 1370 1676 1862 1738 1573 1353 1021 714 498 498 747 1233 1492 1585 1701 1713 1771 1814 1880 1811 1593 91 227 26 365 1665 1380 1256 924
930 870 1122 1416 1794 1448 1615 502 1169 1507 1395 1106 1697 1582 1533 1549 1439 1472 1353 1207 1143 1204 1361 1684 1920 2129 2053 1990 1804 1671 1662 1728 1825 1974 1852 341 138 90 598 1058 1622 1613 1223
1024 971 1106 1509 1539 1561 1437 970 1651 1874 1117 984 1208 1166 1319 1618 1600 1485 1337 1305 1508 1781 2034 2156 2255 2173 1627 1329 1406 1609 1936 2384 2342 2009 1859 1002 104 29 198 125 1239 1726 1709
807 1029 1214 1183 957 641 414 806 1576 1528 1734 1821 1637 1327 1356 1455 1638 1476 1489 1403 1934 1943 2115 1991 2094 1733 1725 1518 1571 1355 998 959 2157 2318 2153 1667 489 433 859 1157 982 1716 1359
652 1061 972 768 882 772 1216 213 532 1122 1068 1363 1303 1322 1396 1498 1375 1330 1284 1654 2278 2287 2064 1960 1727 1626 1665 1506 1256 850 484 1027 1868 2209 2277 1609 1071 896 726 1365 1422 1975 1505
367 650 634 937 683 419 938 713 384 416 607 1093 1272 1389 1013 991 1098 1571 1590 1484 1240 1267 1387 1436 1449 1484 1911 1822 1322 1017 659 675 1093 1848 2029 1398 1222 1106 812 1182 1357 1840 1547
360 380 514 1004 1041 218 252 591 253 571 795 924 1028 1218 1314 1406 1557 1696 1786 1784 1714 936 1289 1469 1681 1767 2069 1999 1596 1300 924 544 590 735 1094 1239 1218 1192 908 1071 1124 1045 1105
344 261 360 870 532 7 0 177 265 507 736 932 1096 1195 1253 1441 1565 1719 1666 1438 1348 1210 1485 1626 1811 1931 1981 2257 1720 1571 945 888 622 584 701 682 966 1004 662 742 572 704 856
256 165 354 685 182 0 0 92 330 542 713 813 887 1111 1388 1537 1399 1540 1493 1499 1466 1272 1352 1513 1523 1729 2307 2164 1698 1980 1612 741 570 559 655 504 621 683 664 614 546 584 522
190 50 264 399 61 0 0 163 351 464 522 680 955 1181 1480 1573 1457 1640 1484 1603 1837 2106 2135 1839 1667 1774 2158 2146 1937 2179 1963 1235 485 329 458 665 329 753 583 463 475 514 530
98 20 121 129 16 0 0 0 172 296 504 706 895 991 1146 1270 1064 1636 1604 1850 2071 1913 1900 2088 2082 2306 2231 1956 2148 2072 1748 1566 962 422 736 859 877 498 620 642 689 620 534
92 46 123 11 4 0 0 0 0 185 685 1021 1098 1230 1292 1283 815 1467 1477 1725 1572 1861 1929 2291 2444 2527 2300 2334 2147 1925 1822 1514 611 645 847 987 1120 972 1097 880 921 815 683
107 137 133 120 6 0 0 0 26 262 609 1107 1155 1171 1334 1397 1285 1274 1644 1800 1432 1442 1956 2284 2417 2579 2354 2402 1964 1777 1794 1153 547 738 1230 1158 1243 1244 1277 1128 537 774 674
202 247 200 29 0 0 0 0 98 754 1048 1137 1148 1111 1144 1356 1463 1594 1491 1498 1299 1208 1601 1961 2451 2480 2303 2232 1920 1821 1633 762 660 828 1024 772 930 1005 1019 846 706 763 486
146 104 274 0 0 0 0 11 377 1029 1054 1037 988 1164 1294 1332 1226 1591 1519 1440 1089 1215 1500 1806 1951 1949 1458 1845 1822 1180 971 427 254 659 661 1103 1118 1002 1190 1284 1305 1079 825
89 105 134 88 0 0 14 473 773 1200 940 966 946 967 943 936 1086 1441 1447 1415 1178 1394 1651 1599 1298 684 1010 1189 1072 1076 434 386 342 596 1153 993 1112 768 791 1005 1368 1152 785
102 117 44 135 105 2 11 494 623 902 814 751 716 796 809 1089 1468 1568 1644 1398 1446 1502 1421 1516 1212 1259 661 993 1201 801 403 232 240 774 1072 1230 770 528 713 1044 1376 1351 1298
57 87 65 78 149 139 95 242 478 448 498 727 896 875 785 965 1190 1493 1701 1622 1667 1569 1626 1439 1302 1359 1338 949 1407 1266 1270 874 213 323 734 753 608 193 79 61 32 26 124
79 72 96 95 87 151 180 118 429 531 503 699 707 693 791 861 1029 1266 1553 1571 1673 1825 1697 2005 2093 1862 1358 1394 1240 1065 1057 704 589 478 420 519 907 0 0 0 0 0 0
86 95 97 103 48 73 142 144 144 288 413 385 321 248 577 729 849 959 1234 1433 1412 1714 2325 2544 2212 1997 1578 1531 1475 980 664 435 539 442 591 887 1034 0 0 0 0 0 0
CIN
-1 0 -2 0 0 -6 0 -1 0 -1 -4 -22 -22 -3 -1 -2 -1 0 0 0 0 0 -17 -14 -12 -22 -12 -1 0 -1 -12 -13 -10 -5 0 0 0 -1 -1 0 -6 0 -2
-1 0 -2 -1 -9 -1 0 0 0 0 -1 0 0 0 0 0 0 0 0 0 0 0 0 -1 -3 -2 -3 -4 -7 -7 -12 -24 -7 -11 -1 -3 -4 -5 -4 -4 -13 -2 -1
-5 -7 0 0 -5 0 -2 -3 0 -1 0 0 0 0 -1 -1 0 0 0 0 0 0 0 0 0 0 0 -4 -11 -6 -33 -38 -18 -28 -37 -33 -17 -13 -7 0 -9 -2 -1
-19 -10 0 -1 -8 -1 0 0 -1 0 0 0 -3 0 0 0 0 0 -2 -4 -1 0 0 0 -6 -21 -44 -61 -62 -51 -37 -30 -32 -10 -61 -163 -104 -30 -2 -4 -3 -3 0
-14 -8 0 -3 -1 0 0 -2 0 0 -1 0 -21 0 -1 0 0 0 0 0 -1 0 -6 -28 -47 -65 -72 -74 -67 -69 -64 -66 -48 -15 -42 -103 -127 -106 -9 0 -3 -1 -1
-18 -35 -6 0 0 0 0 0 0 0 0 0 0 0 0 0 0 0 0 0 -15 -23 -42 -56 -66 -67 -74 -83 -90 -91 -86 -77 -60 -30 -20 -110 -198 -81 -25 0 -1 -1 0
-12 -38 -14 0 0 0 0 -8 -7 -1 0 -1 -1 0 -2 -1 -1 0 -4 -18 -46 -68 -103 -106 -89 -61 -56 -51 -51 -57 -54 -42 -23 -12 -31 -157 -123 -102 -75 -1 0 0 -4
-12 -9 -1 -1 0 0 0 -59 -5 0 -1 -11 -1 0 0 -1 -5 -13 -31 -49 -56 -58 -55 -42 -36 -29 -35 -43 -47 -53 -62 -64 -36 -22 -29 -102 -150 -185 -76 -26 0 -2 -1
-1 -8 -1 0 0 0 -1 -20 0 -1 -10 -25 -10 -14 -10 -5 -15 -34 -50 -57 -49 -41 -35 -35 -38 -44 -55 -56 -65 -64 -64 -57 -45 -36 -48 -72 -193 -183 -154 -177 -24 -1 0
-9 -4 0 0 -3 -22 -69 -41 -1 -2 -1 0 0 -12 -23 -35 -38 -54 -57 -64 -46 -47 -47 -48 -44 -61 -49 -37 -46 -60 -81 -68 -20 -22 -40 -46 -140 -148 -95 -60 -51 -5 -10
-16 0 0 -12 -8 -22 -9 -117 -72 -23 -25 -8 -14 -28 -38 -42 -52 -62 -77 -67 -42 -38 -45 -47 -58 -60 -45 -37 -43 -60 -89 -28 -13 -19 -23 -74 -113 -108 -98 -49 -36 -10 -14
-66 -21 -21 -5 -24 -67 -18 -42 -84 -79 -48 -22 -26 -33 -68 -80 -88 -68 -66 -82 -88 -80 -74 -67 -66 -53 -33 -13 -11 -26 -33 -25 -13 -17 -20 -75 -85 -89 -88 -59 -46 -19 -22
-77 -70 -52 -4 -4 -103 -102 -58 -93 -62 -44 -49 -62 -63 -71 -65 -63 -52 -51 -43 -48 -74 -36 -42 -26 -22 -25 -16 -21 -23 -34 -27 -32 -31 -30 -77 -86 -73 -71 -53 -50 -45 -35
-91 -106 -91 -19 -62 -31 0 -120 -98 -64 -51 -47 -57 -74 -69 -50 -50 -49 -45 -56 -68 -67 -55 -51 -25 -40 -35 -21 -31 -31 -46 -47 -54 -49 -45 -88 -72 -62 -66 -55 -61 -46 -36
-117 -152 -103 -54 -139 0 0 -141 -93 -60 -49 -54 -66 -65 -68 -56 -56 -57 -52 -50 -48 -67 -53 -40 -49 -47 -37 -27 -37 -38 -41 -65 -75 -71 -53 -91 -83 -74 -55 -56 -63 -57 -56
-133 -200 -132 -105 -108 0 0 -117 -81 -69 -67 -64 -64 -61 -64 -57 -64 -43 -46 -43 -33 -39 -35 -43 -61 -56 -32 -26 -33 -43 -55 -74 -95 -97 -55 -39 -91 -63 -63 -69 -62 -55 -50
-167 -217 -197 -162 -92 0 0 0 -102 -76 -53 -51 -51 -66 -66 -66 -69 -53 -41 -36 -33 -47 -39 -33 -40 -46 -27 -29 -33 -26 -48 -50 -55 -87 -61 -49 -36 -80 -62 -57 -46 -44 -42
-161 -206 -193 -40 -19 0 0 0 0 -75 -50 -40 -45 -40 -46 -52 -76 -52 -41 -33 -56 -39 -35 -21 -16 -15 -15 -20 -27 -38 -67 -56 -105 -81 -44 -44 -40 -29 -39 -61 -44 -40 -41
-172 -161 -175 -162 -54 0 0 0 -65 -80 -58 -47 -43 -31 -40 -40 -46 -55 -33 -29 -56 -44 -29 -15 -5 -18 -12 -13 -23 -45 -53 -77 -118 -73 -37 -38 -33 -38 -29 -54 -82 -58 -51
-128 -118 -125 -176 0 0 0 0 -109 -57 -52 -48 -38 -32 -44 -36 -44 -47 -41 -42 -47 -36 -23 -14 -12 -13 -13 -13 -19 -30 -40 -103 -109 -90 -60 -53 -52 -53 -50 -75 -74 -48 -78
-131 -145 -118 0 0 0 0 -50 -65 -24 -28 -31 -36 -41 -43 -38 -47 -52 -49 -41 -49 -44 -32 -25 -26 -13 -25 -8 -25 -27 -38 -98 -107 -81 -95 -83 -87 -81 -48 -38 -43 -42 -36
-182 -154 -142 -135 0 0 -180 -63 -42 -27 -29 -26 -33 -36 -38 -40 -47 -47 -46 -38 -52 -41 -39 -31 -70 -78 -21 -22 -17 -27 -26 -28 -50 -72 -41 -43 -40 -67 -82 -64 -31 -46 -61
-157 -171 -181 -142 -148 -24 -215 -84 -73 -55 -53 -37 -36 -30 -29 -33 -33 -40 -38 -43 -45 -53 -41 -43 -28 -35 -40 -25 -38 -25 -20 -12 -36 -27 -36 -21 -66 -99 -88 -46 -16 -21 -20
-227 -186 -171 -177 -158 -158 -160 -119 -93 -80 -68 -48 -41 -32 -36 -41 -31 -31 -38 -42 -46 -53 -66 -64 -59 -32 -24 -24 -20 -42 -44 -32 -54 -30 -3 -17 -86 -186 -239 -245 -248 -249 -149
-212 -210 -210 -187 -203 -168 -142 -155 -106 -102 -89 -68 -78 -80 -69 -65 -48 -32 -41 -42 -42 -51 -66 -54 -51 -37 -24 -17 -20 -33 -38 -50 -48 -18 -37 -15 -18 0 0 0 0 0 0
-253 -231 -230 -227 -253 -220 -186 -174 -167 -133 -122 -116 -126 -128 -101 -73 -70 -65 -46 -40 -47 -42 -35 -36 -32 -24 -19 -17 -13 -26 -32 -38 -23 -17 -12 0 0 0 0 0 0 0 0
Wind_Speed
28 27 29 26 24 24 23 23 22 24 24 24 24 23 23 24 24 24 24 23 23 23 22 13 13 16 9 7 6 6 10 14 19 19 15 13 12 13 12 11 10 10 12
30 29 28 26 23 21 20 20 21 24 24 24 23 22 21 22 23 23 23 23 20 13 6 8 12 9 7 6 6 7 10 13 20 19 15 13 12 12 12 11 10 10 11
30 28 28 26 23 20 22 23 23 23 23 22 21 21 22 21 19 20 19 7 6 6 6 5 6 6 6 7 8 9 13 19 20 17 15 14 14 14 14 11 11 11 12
29 29 26 26 21 22 23 24 24 25 24 23 23 22 21 21 19 19 18 11 8 10 10 8 7 7 8 8 9 10 12 12 14 14 13 13 15 14 15 14 12 11 11
29 28 28 26 24 25 24 25 25 26 25 25 24 23 23 21 21 20 18 15 12 11 13 14 12 10 10 10 11 10 10 9 9 12 12 14 15 14 14 13 12 12 13
29 28 27 27 26 25 26 25 25 25 25 25 25 25 24 23 24 23 22 19 15 10 10 11 12 12 12 12 12 10 10 11 10 9 10 11 14 14 15 14 13 14 13
29 28 27 26 25 25 24 24 24 24 25 25 24 24 23 22 22 21 20 18 15 13 12 11 10 11 11 11 11 12 12 12 12 12 11 10 12 15 15 17 12 12 12
29 28 27 26 26 25 25 25 25 25 24 24 23 23 22 22 21 19 18 17 16 14 12 10 9 10 11 11 11 12 13 13 14 14 12 12 14 14 14 16 14 11 10
29 28 27 26 26 25 25 25 24 24 25 24 24 23 22 22 21 21 20 18 16 14 12 10 9 8 9 9 11 13 12 12 13 12 12 13 14 13 13 14 14 11 9
28 27 27 26 25 25 24 25 24 24 24 24 23 23 22 22 20 20 19 17 14 13 11 10 8 6 5 9 11 17 17 14 12 12 12 12 12 12 12 12 12 11 11
27 27 26 26 25 25 24 24 24 23 23 23 23 22 22 21 20 19 18 16 14 12 11 9 8 7 4 6 9 11 12 18 17 11 11 12 11 11 11 12 12 12 11
29 28 26 26 25 25 24 24 23 23 23 23 22 23 22 21 20 16 16 15 13 11 10 8 8 10 9 10 8 7 7 10 13 15 12 11 10 11 11 14 13 11 10
29 28 27 26 25 25 24 24 24 23 23 24 24 23 21 20 19 17 15 15 13 11 12 13 16 13 9 8 7 7 6 7 8 8 6 9 10 10 10 10 10 12 10
30 29 28 27 26 25 24 24 24 24 24 25 24 22 21 20 20 17 16 14 15 15 15 13 15 13 12 4 4 5 5 6 7 8 8 8 9 9 8 8 7 6 6
30 29 29 28 27 26 25 24 24 24 25 25 23 21 20 20 19 18 17 14 14 13 12 11 9 9 9 9 7 6 5 5 4 7 7 8 8 8 8 7 7 6 8
30 30 29 29 28 27 26 24 24 25 25 24 22 20 19 18 18 16 16 13 12 10 10 8 7 7 9 8 7 8 10 10 9 8 8 7 7 7 7 6 5 6 7
31 31 31 30 29 28 26 25 25 24 24 22 21 19 18 18 17 16 15 13 11 10 9 6 7 11 10 10 8 10 9 8 9 9 9 8 9 9 5 4 4 5 5
30 32 31 31 30 29 28 26 24 23 22 21 20 18 18 17 17 15 14 12 10 8 8 7 12 13 11 9 6 2 9 10 13 13 13 13 12 8 9 8 10 9 8
32 32 32 32 32 30 28 26 23 21 21 21 19 18 17 16 15 15 13 11 9 7 7 9 11 12 12 11 7 2 7 14 16 16 17 16 15 12 11 14 15 14 10
33 33 33 33 33 31 28 25 23 21 20 21 19 17 16 15 15 14 13 10 8 8 6 8 12 16 18 8 4 3 1 15 17 14 13 15 18 17 15 16 17 16 14
35 35 34 34 33 32 29 25 23 21 19 19 18 17 15 14 13 14 11 9 9 8 8 15 21 25 24 22 8 7 9 13 16 15 12 17 21 20 16 17 17 17 15
37 36 35 27 31 32 28 24 21 21 19 18 17 15 13 12 12 13 11 9 8 6 10 13 10 7 18 2 4 12 14 14 15 18 17 20 22 22 21 20 19 17 16
39 36 31 23 30 30 27 22 20 19 19 17 16 14 13 12 12 12 11 8 6 5 4 8 6 7 7 3 5 10 15 16 19 19 21 22 24 24 23 22 22 20 18
41 38 33 26 26 28 23 22 22 22 19 17 15 13 13 12 12 13 10 8 6 4 3 3 6 5 3 3 10 10 10 14 19 21 21 22 23 24 24 23 24 24 23
42 40 36 33 30 25 23 24 23 24 21 17 13 13 13 14 14 12 11 8 6 4 3 3 3 3 4 3 6 9 11 14 16 19 21 26 22 23 23 24 25 24 24
41 40 38 36 33 25 22 24 24 23 20 17 14 13 13 13 14 12 15 10 6 3 4 5 5 4 5 7 7 9 12 16 19 17 18 19 20 21 22 24 24 25 26
Wind_Direction
140 148 116 88 73 72 65 60 60 69 75 78 81 81 87 93 100 108 105 113 120 116 129 168 172 159 199 233 249 275 341 6 19 11 355 333 348 11 14 356 326 332 13
124 124 115 90 72 65 56 57 61 72 76 79 81 77 72 79 84 90 101 120 141 180 225 198 174 193 226 241 248 268 325 329 21 16 349 326 283 283 303 342 321 318 0
114 111 111 93 77 64 67 71 75 77 74 70 69 66 73 69 55 51 48 300 253 267 305 284 279 285 283 274 253 262 149 73 42 43 309 275 252 246 246 323 350 264 257
114 115 101 96 73 72 76 86 83 92 90 81 80 74 69 65 54 55 46 4 316 345 331 308 276 279 279 258 225 192 145 122 95 130 240 264 234 267 239 64 21 350 300
119 113 115 100 90 93 87 108 98 108 107 96 95 83 76 65 67 59 49 28 355 340 345 350 325 283 247 231 224 202 192 203 157 146 180 235 244 325 299 315 330 314 289
123 124 124 120 112 110 123 130 129 128 126 119 114 108 102 113 91 98 115 141 171 275 292 286 291 277 249 247 244 194 203 222 223 224 217 219 183 97 324 303 314 314 327
127 133 133 133 124 126 137 140 143 141 126 127 126 125 121 123 124 128 134 145 164 178 195 204 221 244 240 241 234 232 227 223 238 227 235 238 188 140 161 250 339 51 56
130 137 139 136 131 140 139 142 139 134 130 132 134 128 129 129 133 140 144 149 155 162 171 189 215 234 242 237 237 247 241 231 225 231 189 164 108 126 156 177 140 91 60
145 141 142 140 133 145 147 143 138 131 120 125 123 126 132 130 135 137 134 140 147 157 162 168 194 227 223 217 236 255 246 229 209 175 143 115 83 120 140 165 166 106 78
164 158 148 152 155 153 151 142 137 133 130 122 124 126 135 137 145 144 141 142 158 157 162 156 160 155 197 223 241 294 298 279 142 127 113 108 115 128 119 110 106 82 48
175 168 162 158 158 158 153 136 126 132 132 133 133 138 141 149 148 149 141 150 154 157 160 160 144 128 113 141 217 259 275 319 303 216 130 99 117 118 117 78 63 43 38
171 169 168 166 167 161 158 141 126 130 143 143 144 139 149 143 146 160 153 153 160 155 153 151 142 118 107 110 157 205 226 246 281 278 91 85 95 80 64 32 32 38 54
174 173 171 174 171 163 135 138 138 147 150 144 143 143 150 143 148 159 163 155 158 155 136 124 103 107 115 126 134 161 193 190 185 196 131 120 132 117 92 82 62 35 48
180 175 171 173 176 168 150 140 146 150 150 149 147 144 138 140 137 155 160 156 142 128 114 117 98 98 102 156 166 164 183 193 209 193 175 138 142 139 128 115 100 109 89
185 180 174 171 174 169 156 162 161 154 153 147 147 145 144 142 142 141 144 156 143 135 126 125 113 108 107 99 115 151 188 143 154 141 159 129 126 124 144 130 123 113 65
194 182 180 174 170 170 168 164 157 156 156 151 150 145 151 161 157 156 151 158 159 159 145 129 120 110 99 91 88 94 82 76 82 102 118 142 126 111 122 135 115 71 49
192 184 181 172 173 169 176 168 160 152 155 152 150 150 149 159 161 164 159 147 145 151 148 168 110 85 88 69 71 75 70 75 68 78 82 74 66 52 95 90 68 41 34
200 187 186 181 178 175 173 164 159 157 163 160 154 147 151 151 160 161 159 154 157 146 118 108 71 63 61 62 60 242 61 53 47 48 45 42 41 50 36 37 27 20 14
194 196 184 190 181 174 178 174 172 171 170 170 161 153 151 154 153 160 158 148 131 129 84 56 47 49 42 42 41 50 57 48 47 39 30 30 24 24 27 20 13 10 12
194 192 178 185 183 181 182 181 183 185 167 160 153 144 143 149 158 156 167 154 113 78 75 57 44 31 20 37 26 271 91 46 42 43 41 29 19 20 18 13 8 8 6
192 189 184 184 180 178 174 167 168 162 147 156 150 140 133 137 155 163 153 122 111 113 75 39 18 8 7 17 39 37 51 44 39 35 44 31 20 14 12 4 2 3 5
191 185 182 161 171 180 173 167 163 157 152 150 146 143 138 138 152 158 148 145 126 102 53 49 52 40 20 0 65 47 44 38 34 32 33 23 13 8 5 2 4 8 11
192 183 172 160 171 177 171 163 160 160 162 157 155 149 151 142 139 154 155 153 145 102 88 51 45 45 42 93 90 65 46 38 24 28 24 19 14 15 14 13 12 11 7
198 190 180 169 169 174 164 165 167 172 166 161 154 153 161 160 159 181 158 181 175 133 109 44 33 14 23 348 47 51 40 30 20 17 19 20 18 17 15 14 13 12 9
202 199 187 182 178 172 169 174 175 183 183 170 152 165 166 171 177 172 183 181 177 132 95 41 22 20 25 343 31 35 28 24 16 13 9 7 17 16 14 12 9 8 6
204 196 193 188 185 175 173 177 180 182 180 175 167 165 166 168 175 177 204 191 187 148 66 48 28 16 14 1 10 18 15 15 12 13 10 13 15 16 14 11 8 5 1